Location: Forestville
(38.4740°N, 122.8890°W)
Time: 23:11:31
(UTC-07:00)

Amateur Radio Satellites - All Passes

Search period start: 30 June 2016 22:41
Search period end: 01 July 2016 22:41
Location: Forestville, 38.4740°N, 122.8890°W

Satellite Date Start Highest point End Downlink Frequencies (MHz)
Time Altitude Azimuth
HUMSAT D 30 Jun 22:47:18 22:51:28 82° 260° (W) 22:55:44 437.325/437.525
ANTELSAT 30 Jun 22:51:23 22:55:26 28° 96° (E) 22:59:29 437.575/2403.000
DELFI C3 30 Jun 22:53:23 22:56:53 29° 263° (W) 23:00:25 145.870
50 SAT 30 Jun 22:54:47 22:55:40 11° 65° (ENE) 22:56:32 437.505
RS-15 30 Jun 23:05:23 23:15:38 33° 257° (WSW) 23:25:47 29.354- 29.394
AISAT 30 Jun 23:14:23 23:17:46 22° 68° (ENE) 23:21:10 437.250
ESTCUBE 1 30 Jun 23:20:10 23:24:23 39° 72° (ENE) 23:28:37 437.505/2401.250
DX 1 30 Jun 23:25:08 23:28:25 21° 67° (ENE) 23:31:42 434.975-435.025
QB50P1 30 Jun 23:33:25 23:34:48 11° 91° (E) 23:36:11 145.935-145.965
POPSAT HIP 1 30 Jun 23:36:31 23:38:19 12° 92° (E) 23:40:06 437.405
TIGRISAT 30 Jun 23:41:43 23:46:24 87° 284° (WNW) 23:51:07 435.000
Cosmos 2491 30 Jun 23:45:57 23:52:44 26° 82° (E) 23:59:29 435.465 / 435.565
DUCHIFAT 1 30 Jun 23:47:10 23:49:37 15° 93° (E) 23:52:04 145.980
UNISAT 6 30 Jun 23:47:48 23:52:27 71° 285° (WNW) 23:57:08 437.425
QB50P2 30 Jun 23:48:27 23:51:30 19° 94° (E) 23:54:32 145.880/145.840
POLYITAN 1 30 Jun 23:51:02 23:54:09 19° 94° (E) 23:57:14 437.675
CUBEBUG 1 30 Jun 23:53:18 23:57:35 61° 75° (ENE) 00:01:52 437.445
SO-50 30 Jun 23:54:33 23:58:35 28° 49° (NE) 00:02:29 436.795
Cosmos 2504 01 Jul 00:00:37 00:06:39 20° 64° (ENE) 00:12:31 435.465 / 435.565
VELOX 1 01 Jul 00:08:20 00:12:44 84° 77° (ENE) 00:17:09 145.980
50 SAT 01 Jul 00:25:17 00:28:52 48° 260° (W) 00:32:30 437.505
ANTELSAT 01 Jul 00:28:05 00:32:01 27° 291° (WNW) 00:35:59 437.575/2403.000
BUGSAT 1 01 Jul 00:31:18 00:34:27 21° 95° (E) 00:37:36 437.445
SPROUT 01 Jul 00:31:19 00:35:30 63° 75° (ENE) 00:39:43 437.525
YUBILEINY 01 Jul 00:31:35 00:40:28 89° 264° (W) 00:49:20 435.215
UKube-1 01 Jul 00:34:55 00:39:13 78° 258° (WSW) 00:43:33 .
JAS-2 01 Jul 00:43:15 00:46:32 16° 90° (E) 00:49:42 435.910
AISAT 01 Jul 00:50:10 00:54:03 31° 263° (W) 00:57:58 437.250
PCSat 01 Jul 00:50:21 00:53:44 17° 104° (ESE) 00:57:08 145.827
ESTCUBE 1 01 Jul 00:58:14 01:01:19 18° 267° (W) 01:04:25 437.505/2401.250
DX 1 01 Jul 01:00:33 01:04:24 31° 263° (W) 01:08:17 434.975-435.025
NANOSAT C BR1 01 Jul 01:02:04 01:06:17 66° 285° (WNW) 01:10:30 145.865
QB50P1 01 Jul 01:06:43 01:10:53 55° 286° (WNW) 01:15:03 145.935-145.965
POPSAT HIP 1 01 Jul 01:10:13 01:14:22 51° 286° (WNW) 01:18:30 437.405
DUCHIFAT 1 01 Jul 01:21:28 01:25:29 41° 287° (WNW) 01:29:28 145.980
QB50P2 01 Jul 01:23:31 01:27:21 33° 289° (WNW) 01:31:12 145.880/145.840
POLYITAN 1 01 Jul 01:26:09 01:29:59 33° 289° (WNW) 01:33:49 437.675
CUBEBUG 1 01 Jul 01:33:24 01:34:14 10° 269° (W) 01:35:03 437.445
SO-50 01 Jul 01:34:57 01:39:02 31° 247° (WSW) 01:43:00 436.795
Cosmos 2491 01 Jul 01:40:11 01:48:50 63° 280° (W) 01:57:31 435.465 / 435.565
TISAT 1 01 Jul 01:41:35 01:45:43 82° 255° (WSW) 01:49:55 437.305
O/OREOS (USA 219) 01 Jul 01:47:03 01:50:17 20° 101° (E) 01:53:31 437.305
SWISSCUBE 01 Jul 01:50:58 01:54:56 26° 68° (ENE) 01:58:55 437.505
BEESAT 3 01 Jul 01:51:34 01:55:09 36° 115° (ESE) 01:58:47 437.485
Cosmos 2504 01 Jul 01:52:18 02:01:12 85° 265° (W) 02:09:37 435.465 / 435.565
BUGSAT 1 01 Jul 02:06:15 02:09:48 28° 289° (WNW) 02:13:22 437.445
BEESAT 01 Jul 02:15:18 02:19:46 41° 71° (ENE) 02:24:17 436.000
ITUPSAT 1 01 Jul 02:18:09 02:22:41 44° 72° (ENE) 02:27:15 437.325
JAS-2 01 Jul 02:26:45 02:32:07 53° 289° (WNW) 02:37:08 435.910
YUBILEINY 01 Jul 02:31:02 02:35:56 16° 283° (WNW) 02:40:51 435.215
PCSat 01 Jul 02:31:14 02:36:35 60° 300° (WNW) 02:41:58 145.827
BEESAT 2 01 Jul 02:34:38 02:38:32 62° 118° (ESE) 02:42:28 435.950
Oscar 19 01 Jul 02:43:09 02:48:18 84° 104° (ESE) 02:53:26 437.125/150
ITAMSAT 1 01 Jul 03:12:36 03:16:40 23° 95° (E) 03:20:43 435.822/435.867
Gurwin Techsat 1B 01 Jul 03:22:28 03:27:50 84° 104° (ESE) 03:33:09 435.225
O/OREOS (USA 219) 01 Jul 03:25:18 03:29:25 35° 297° (WNW) 03:33:32 437.305
SWISSCUBE 01 Jul 03:28:23 03:32:35 30° 263° (W) 03:36:50 437.505
BEESAT 3 01 Jul 03:30:06 03:32:57 19° 312° (NW) 03:35:50 437.485
AO-7 01 Jul 03:30:19 03:35:41 18° 92° (E) 03:41:01 29.400- 29.500
AIST 2 01 Jul 03:41:56 03:44:24 16° 110° (ESE) 03:46:53 435.215
Cosmos 2491 01 Jul 03:45:52 03:47:38 11° 302° (WNW) 03:49:24 435.465 / 435.565
Cosmos 2504 01 Jul 03:48:30 03:53:06 16° 284° (WNW) 03:57:37 435.465 / 435.565
BEESAT 01 Jul 03:54:21 03:57:43 19° 266° (W) 04:01:06 436.000
KKS-1 01 Jul 03:55:40 03:59:57 54° 74° (ENE) 04:04:17 437.445
ITUPSAT 1 01 Jul 03:57:25 04:00:42 18° 267° (W) 04:03:59 437.325
MOZHAYETS 4 01 Jul 04:06:23 04:10:57 64° 75° (ENE) 04:15:34
BEESAT 2 01 Jul 04:14:47 04:16:45 13° 315° (NW) 04:18:45 435.950
STARS 01 Jul 04:20:04 04:24:15 49° 73° (ENE) 04:28:29 437.465
PCSat 01 Jul 04:20:16 04:21:07 10° 320° (NW) 04:21:59 145.827
AIST 1 01 Jul 04:24:03 04:28:19 70° 82° (E) 04:32:33
Oscar 19 01 Jul 04:25:09 04:26:53 12° 300° (WNW) 04:28:36 437.125/150
Cosmos 2499 01 Jul 04:29:47 04:33:53 14° 60° (ENE) 04:37:52 435.465 / 435.565
GONETS M04 01 Jul 04:34:18 04:41:02 24° 68° (ENE) 04:47:44
ITAMSAT 1 01 Jul 04:51:23 04:56:15 40° 290° (WNW) 05:01:06 435.822/435.867
Gurwin Techsat 1B 01 Jul 05:04:56 05:07:01 12° 300° (WNW) 05:09:05 435.225
HORYU 2 01 Jul 05:14:05 05:17:26 20° 95° (E) 05:20:45 437.375
AIST 2 01 Jul 05:18:36 05:22:31 43° 305° (NW) 05:26:29 435.215
AO-7 01 Jul 05:20:53 05:29:19 85° 289° (WNW) 05:37:40 29.400- 29.500
AO-85 01 Jul 05:26:16 05:29:53 23° 47° (NE) 05:33:16 145.980
KKS-1 01 Jul 05:35:00 05:36:50 12° 268° (W) 05:38:41 437.445
CUBESAT XI-V 01 Jul 05:41:46 05:46:27 76° 76° (ENE) 05:51:09 437.345
MOZHAYETS 4 01 Jul 05:47:01 05:48:31 11° 270° (W) 05:50:01
STARS 01 Jul 05:58:48 06:00:53 13° 268° (W) 06:02:58 437.465
NOAA 18 01 Jul 06:02:15 06:02:29 10° 89° (E) 06:02:44 137.9125
PHONESAT 2.4 01 Jul 06:07:26 06:10:24 46° 157° (SSE) 06:13:22 2401.200-2431.200
CUTE-I 01 Jul 06:15:09 06:17:43 13° 91° (E) 06:20:15 437.470
Cosmos 2499 01 Jul 06:19:58 06:28:43 74° 81° (E) 06:36:50 435.465 / 435.565
DANDE 01 Jul 06:23:57 06:25:00 10° 80° (E) 06:26:02 436.750
LilacSat-2 01 Jul 06:29:52 06:32:00 14° 93° (E) 06:34:09 437.200
GONETS M04 01 Jul 06:29:56 06:38:35 70° 267° (W) 06:47:15
NOAA 15 01 Jul 06:32:05 06:36:32 28° 96° (E) 06:40:58 137.62
STRAND 1 01 Jul 06:37:15 06:41:07 22° 65° (ENE) 06:45:01 437.568
BRITE-PL 01 Jul 06:44:13 06:47:59 33° 98° (E) 06:51:49 437.365/2234.400
HORYU 2 01 Jul 06:49:58 06:54:02 34° 290° (WNW) 06:58:06 437.375
GOMX 1 01 Jul 07:02:42 07:06:10 24° 96° (E) 07:09:45 467.674
AO-85 01 Jul 07:06:27 07:10:26 34° 247° (WSW) 07:14:08 145.980
CUSAT 1 01 Jul 07:09:12 07:16:33 50° 95° (E) 07:22:44 437.405
AO-7 01 Jul 07:15:31 07:20:53 19° 308° (NW) 07:26:14 29.400- 29.500
Cubesat XI-IV 01 Jul 07:19:28 07:24:48 57° 101° (E) 07:30:05 437.490
ISS 01 Jul 07:37:39 07:40:45 42° 136° (SE) 07:43:52 145.825
NOAA 18 01 Jul 07:38:13 07:43:49 89° 105° (ESE) 07:49:23 137.9125
PHONESAT 2.4 01 Jul 07:43:57 07:46:59 61° 353° (N) 07:50:02 2401.200-2431.200
DOVE 4 01 Jul 07:47:20 07:51:22 34° 98° (E) 07:55:36 437.250
CUTE-I 01 Jul 07:52:52 07:58:14 70° 286° (WNW) 08:03:33 437.470
DANDE 01 Jul 07:58:25 08:06:40 62° 94° (E) 08:14:10 436.750
LilacSat-2 01 Jul 08:02:51 08:06:26 36° 287° (WNW) 08:10:00 437.200
NOAA 15 01 Jul 08:11:38 08:16:18 34° 292° (WNW) 08:20:58 137.62
Cosmos 2499 01 Jul 08:14:48 08:20:46 21° 281° (W) 08:26:31 435.465 / 435.565
STRAND 1 01 Jul 08:15:07 08:19:59 43° 261° (W) 08:24:53 437.568
CINEMA 3 01 Jul 08:21:07 08:24:53 24° 95° (E) 08:28:45 145.822/145.860
BRITE-PL 01 Jul 08:23:27 08:26:17 18° 292° (WNW) 08:29:07 437.365/2234.400
CANX-2 01 Jul 08:23:50 08:27:13 22° 95° (E) 08:30:34 2200.000
GONETS M04 01 Jul 08:31:47 08:33:40 11° 286° (WNW) 08:35:33
GOMX 1 01 Jul 08:40:38 08:44:13 27° 289° (WNW) 08:47:56 467.674
SEEDS 01 Jul 08:41:36 08:44:54 22° 94° (E) 08:48:10 437.485
CUTE 1.7 + AOD 2 01 Jul 08:42:51 08:46:43 32° 97° (E) 08:50:31 437.475
CUSAT 1 01 Jul 08:52:15 08:58:39 30° 285° (WNW) 09:04:11 437.405
PRISM 01 Jul 08:59:32 09:03:42 87° 257° (WSW) 09:07:52 437.425
Cubesat XI-IV 01 Jul 09:00:48 09:04:22 18° 297° (WNW) 09:07:55 437.490
AAUSAT CUBESAT 2 01 Jul 09:11:40 09:15:11 26° 95° (E) 09:18:40 437.432
HO-68 01 Jul 09:13:57 09:21:09 69° 104° (ESE) 09:28:18 435.675
ISS 01 Jul 09:14:38 09:17:18 23° 332° (NNW) 09:19:59 145.825
M-CUBED/EXP-1 PRIME 01 Jul 09:15:43 09:17:03 11° 98° (E) 09:18:23 437.505
PHONESAT 2.4 01 Jul 09:20:41 09:23:45 69° 11° (N) 09:26:49 2401.200-2431.200
NOAA 18 01 Jul 09:21:26 09:23:39 12° 301° (WNW) 09:25:52 137.9125
DOVE 4 01 Jul 09:25:35 09:28:53 21° 291° (WNW) 09:32:18 437.250
CUBEBUG 2 01 Jul 09:33:46 09:38:14 43° 98° (E) 09:42:45 437.445
PCSat 01 Jul 09:39:09 09:41:37 13° 42° (NE) 09:44:04 145.827
DANDE 01 Jul 09:42:45 09:49:46 29° 288° (WNW) 09:56:13 436.750
ZACube-1 01 Jul 09:46:51 09:50:43 27° 95° (E) 09:54:35 437.345
COMPASS 1 01 Jul 09:48:23 09:52:36 86° 280° (W) 09:56:45 437.405
ANTELSAT 01 Jul 09:49:30 09:52:39 20° 67° (ENE) 09:55:52 437.575/2403.000
Oscar 11 01 Jul 09:50:40 09:54:29 29° 96° (E) 09:58:15 145.826/435.025
CINEMA 3 01 Jul 09:57:53 10:01:59 32° 289° (WNW) 10:06:15 145.822/145.860
CANX-2 01 Jul 09:59:23 10:03:02 28° 290° (WNW) 10:06:40 2200.000
Cosmos 2491 01 Jul 10:00:48 10:02:02 10° 57° (ENE) 10:03:16 435.465 / 435.565
FUNcube-1 01 Jul 10:02:23 10:06:37 37° 97° (E) 10:10:51 145.935
AUBIESAT-1 01 Jul 10:05:50 10:09:36 36° 104° (ESE) 10:13:37 437.475
BEESAT 3 01 Jul 10:10:44 10:13:14 16° 47° (NE) 10:15:45 437.485
UWE-3 01 Jul 10:14:26 10:19:05 83° 104° (ESE) 10:23:46 435.000/436.395/437.385
SEEDS 01 Jul 10:16:57 10:20:34 28° 290° (WNW) 10:24:10 437.485
CUTE 1.7 + AOD 2 01 Jul 10:19:12 10:22:19 20° 292° (WNW) 10:25:25 437.475
DELFI C3 01 Jul 10:32:02 10:35:44 36° 98° (E) 10:39:24 145.870
HUMSAT D 01 Jul 10:33:06 10:36:06 18° 93° (E) 10:39:05 437.325/437.525
TIGRISAT 01 Jul 10:38:48 10:43:04 67° 75° (ENE) 10:47:28 435.000
QB50P2 01 Jul 10:41:09 10:42:54 12° 64° (ENE) 10:44:37 145.880/145.840
POLYITAN 1 01 Jul 10:43:42 10:45:30 13° 64° (ENE) 10:47:20 437.675
UNISAT 6 01 Jul 10:44:59 10:49:18 85° 77° (ENE) 10:53:45 437.425
AAUSAT CUBESAT 2 01 Jul 10:47:15 10:50:32 23° 291° (WNW) 10:53:47 437.432
M-CUBED/EXP-1 PRIME 01 Jul 10:47:47 10:51:44 58° 290° (WNW) 10:55:59 437.505
BEESAT 2 01 Jul 10:54:21 10:57:39 24° 50° (NE) 11:00:56 435.950
PHONESAT 2.4 01 Jul 10:57:26 11:00:16 33° 206° (SSW) 11:03:04 2401.200-2431.200
HO-68 01 Jul 11:02:52 11:08:11 23° 301° (WNW) 11:13:31 435.675
CUBEBUG 2 01 Jul 11:11:20 11:14:31 19° 293° (WNW) 11:17:44 437.445
RS-15 01 Jul 11:12:55 11:23:39 52° 110° (ESE) 11:34:58 29.354- 29.394
PCSat 01 Jul 11:20:27 11:25:55 78° 62° (ENE) 11:31:19 145.827
BUGSAT 1 01 Jul 11:21:19 11:22:56 12° 65° (ENE) 11:24:33 437.445
ZACube-1 01 Jul 11:23:02 11:26:54 28° 290° (WNW) 11:30:47 437.345
ANTELSAT 01 Jul 11:25:13 11:29:08 33° 263° (W) 11:33:07 437.575/2403.000
Oscar 11 01 Jul 11:27:02 11:30:26 23° 292° (WNW) 11:33:49 145.826/435.025
YUBILEINY 01 Jul 11:37:09 11:43:06 21° 80° (E) 11:49:04 435.215
FUNcube-1 01 Jul 11:39:14 11:42:35 21° 293° (WNW) 11:45:57 145.935
AUBIESAT-1 01 Jul 11:41:00 11:43:52 19° 296° (WNW) 11:46:52 437.475
CUBEBUG 1 01 Jul 11:45:15 11:47:03 12° 92° (E) 11:48:49 437.445
BEESAT 3 01 Jul 11:47:22 11:51:10 46° 244° (WSW) 11:54:57 437.485
Cosmos 2491 01 Jul 11:52:14 12:00:52 62° 79° (E) 12:09:28 435.465 / 435.565
NANOSAT C BR1 01 Jul 11:52:23 11:56:33 73° 75° (ENE) 12:00:44 145.865
50 SAT 01 Jul 11:56:53 11:58:59 15° 93° (E) 12:01:03 437.505
QB50P1 01 Jul 11:57:16 12:01:27 88° 68° (ENE) 12:05:41 145.935-145.965
O/OREOS (USA 219) 01 Jul 11:57:19 12:01:18 30° 62° (ENE) 12:05:16 437.305
POPSAT HIP 1 01 Jul 12:00:49 12:04:59 85° 254° (WSW) 12:09:13 437.405
VELOX 1 01 Jul 12:00:56 12:03:52 17° 94° (E) 12:06:47 145.980
HUMSAT D 01 Jul 12:07:52 12:11:49 35° 288° (WNW) 12:15:43 437.325/437.525
DELFI C3 01 Jul 12:07:55 12:10:17 15° 293° (WNW) 12:12:37 145.870
DUCHIFAT 1 01 Jul 12:11:23 12:15:32 71° 259° (W) 12:19:42 145.980
QB50P2 01 Jul 12:14:06 12:18:12 54° 260° (W) 12:22:21 145.880/145.840
POLYITAN 1 01 Jul 12:16:45 12:20:50 52° 260° (W) 12:24:58 437.675
SPROUT 01 Jul 12:20:45 12:22:23 12° 91° (E) 12:24:01 437.525
Oscar 19 01 Jul 12:22:55 12:24:59 12° 61° (ENE) 12:27:03 437.125/150
UKube-1 01 Jul 12:24:20 12:27:24 19° 94° (E) 12:30:28 .
ISS 01 Jul 12:31:46 12:32:26 10° 13° (NNE) 12:33:05 145.825
BEESAT 2 01 Jul 12:32:01 12:35:28 28° 247° (WSW) 12:38:52 435.950
JAS-2 01 Jul 12:34:46 12:42:09 58° 72° (ENE) 12:48:51 435.910
Cosmos 2504 01 Jul 12:39:32 12:43:41 15° 76° (ENE) 12:47:56 435.465 / 435.565
AISAT 01 Jul 12:41:05 12:45:24 52° 100° (E) 12:49:41 437.250
DX 1 01 Jul 12:49:34 12:53:45 46° 100° (E) 12:57:55 434.975-435.025
ESTCUBE 1 01 Jul 12:50:24 12:54:54 76° 285° (WNW) 12:59:21 437.505/2401.250
BUGSAT 1 01 Jul 12:53:59 12:57:52 48° 260° (W) 13:01:46 437.445
Gurwin Techsat 1B 01 Jul 13:05:20 13:08:05 14° 61° (ENE) 13:10:51 435.225
PCSat 01 Jul 13:06:23 13:08:33 12° 258° (WSW) 13:10:43 145.827
CUBEBUG 1 01 Jul 13:19:24 13:23:37 52° 286° (WNW) 13:27:48 437.445
RS-15 01 Jul 13:25:14 13:36:13 49° 313° (NW) 13:47:50 29.354- 29.394
TISAT 1 01 Jul 13:27:56 13:30:42 17° 94° (E) 13:33:26 437.305
50 SAT 01 Jul 13:29:27 13:32:44 31° 288° (WNW) 13:35:58 437.505
YUBILEINY 01 Jul 13:30:10 13:38:51 75° 278° (W) 13:47:40 435.215
VELOX 1 01 Jul 13:36:23 13:40:27 38° 289° (WNW) 13:44:31 145.980
O/OREOS (USA 219) 01 Jul 13:36:59 13:40:31 23° 258° (WSW) 13:44:03 437.305
AIST 2 01 Jul 13:40:57 13:45:07 75° 59° (ENE) 13:49:15 435.215
Cosmos 2491 01 Jul 13:50:13 13:56:59 26° 278° (W) 14:03:46 435.465 / 435.565
SPROUT 01 Jul 13:54:27 13:58:38 53° 286° (WNW) 14:02:48 437.525
Oscar 19 01 Jul 13:58:27 14:03:36 79° 257° (WSW) 14:08:46 437.125/150
UKube-1 01 Jul 13:59:37 14:03:31 34° 289° (WNW) 14:07:24 .
ISS 01 Jul 14:06:38 14:09:39 33° 32° (NNE) 14:12:40 145.825
SO-50 01 Jul 14:09:34 14:11:34 12° 107° (ESE) 14:13:32 436.795
BEESAT 01 Jul 14:19:05 14:20:43 12° 91° (E) 14:22:19 436.000
AISAT 01 Jul 14:19:10 14:21:24 14° 296° (WNW) 14:23:39 437.250
JAS-2 01 Jul 14:21:12 14:27:19 26° 265° (W) 14:33:04 435.910
ITUPSAT 1 01 Jul 14:22:04 14:24:03 12° 91° (E) 14:26:01 437.325
DX 1 01 Jul 14:27:04 14:29:32 15° 295° (WNW) 14:32:00 434.975-435.025
Cosmos 2504 01 Jul 14:27:23 14:35:32 84° 95° (E) 14:44:18 435.465 / 435.565
AO-7 01 Jul 14:27:51 14:34:14 25° 56° (NE) 14:40:39 29.400- 29.500
ITAMSAT 1 01 Jul 14:29:00 14:33:31 31° 68° (ENE) 14:38:03 435.822/435.867
Gurwin Techsat 1B 01 Jul 14:42:06 14:47:23 72° 258° (WSW) 14:52:43 435.225
JUGNU 01 Jul 14:52:46 14:54:16 11° 173° (S) 14:55:47 437.505
TISAT 1 01 Jul 15:02:35 15:06:27 36° 288° (WNW) 15:10:19 437.305
SWISSCUBE 01 Jul 15:29:13 15:34:02 76° 103° (ESE) 15:38:48 437.505
YUBILEINY 01 Jul 15:33:13 15:37:17 14° 300° (WNW) 15:41:23 435.215
ISS 01 Jul 15:43:19 15:45:59 23° 228° (SW) 15:48:39 145.825
RS-15 01 Jul 15:44:38 15:52:52 20° 345° (NNW) 16:01:20 29.354- 29.394
SO-50 01 Jul 15:46:32 15:51:25 73° 302° (WNW) 15:56:19 436.795
KKS-1 01 Jul 15:50:14 15:51:45 11° 91° (E) 15:53:16 437.445
BEESAT 01 Jul 15:54:09 15:58:55 67° 286° (WNW) 16:03:39 436.000
ITUPSAT 1 01 Jul 15:57:31 16:02:17 63° 286° (WNW) 16:07:00 437.325
MOZHAYETS 4 01 Jul 16:04:03 16:07:03 17° 92° (E) 16:10:01
ITAMSAT 1 01 Jul 16:08:20 16:12:54 30° 263° (W) 16:17:29 435.822/435.867
HORYU 2 01 Jul 16:11:23 16:14:10 17° 65° (ENE) 16:16:57 437.375
AO-7 01 Jul 16:17:54 16:26:13 74° 254° (WSW) 16:34:36 29.400- 29.500
Cosmos 2504 01 Jul 16:24:27 16:30:06 19° 296° (WNW) 16:35:59 435.465 / 435.565
JUGNU 01 Jul 16:40:15 16:42:23 12° 184° (S) 16:44:30 437.505
AIST 1 01 Jul 16:51:42 16:55:47 43° 93° (E) 16:59:52
Cubesat XI-IV 01 Jul 17:05:28 17:06:07 10° 58° (ENE) 17:06:47 437.490
SWISSCUBE 01 Jul 17:09:32 17:11:10 12° 299° (WNW) 17:12:47 437.505
KKS-1 01 Jul 17:24:16 17:28:40 59° 286° (WNW) 17:33:02 437.445
NOAA 18 01 Jul 17:24:46 17:28:32 19° 62° (ENE) 17:32:19 137.9125
SO-50 01 Jul 17:30:54 17:32:44 12° 321° (NW) 17:34:35 436.795
GONETS M04 01 Jul 17:34:10 17:41:10 28° 83° (E) 17:48:10
CUTE-I 01 Jul 17:35:03 17:38:56 21° 64° (ENE) 17:42:49 437.470
MOZHAYETS 4 01 Jul 17:40:00 17:44:24 43° 288° (WNW) 17:48:45
CUBESAT XI-V 01 Jul 17:40:39 17:44:06 21° 94° (E) 17:47:32 437.345
HORYU 2 01 Jul 17:46:07 17:50:20 44° 261° (W) 17:54:36 437.375
STARS 01 Jul 17:46:49 17:51:12 67° 285° (WNW) 17:55:35 437.465
CUSAT 1 01 Jul 17:49:36 17:50:34 11° 66° (ENE) 17:51:30 437.405
NOAA 15 01 Jul 17:50:33 17:55:26 39° 70° (ENE) 18:00:19 137.62
BRITE-PL 01 Jul 17:53:19 17:57:50 37° 72° (ENE) 18:02:03 437.365/2234.400
SRMSAT 01 Jul 18:01:27 18:03:40 12° 178° (S) 18:05:52 437.500
RS-15 01 Jul 18:02:46 18:11:50 23° 22° (NNE) 18:20:57 29.354- 29.394
GOMX 1 01 Jul 18:09:57 18:13:26 22° 70° (ENE) 18:16:48 467.674
AO-7 01 Jul 18:17:26 18:20:13 12° 272° (W) 18:23:02 29.400- 29.500
AIST 1 01 Jul 18:31:19 18:33:36 14° 289° (WNW) 18:35:53
Cubesat XI-IV 01 Jul 18:39:57 18:45:17 81° 75° (ENE) 18:50:41 437.490
LilacSat-2 01 Jul 18:42:47 18:46:35 85° 71° (ENE) 18:50:24 437.200
DANDE 01 Jul 18:43:29 18:47:04 24° 69° (ENE) 18:49:57 436.750
DOVE 4 01 Jul 18:52:07 18:55:43 27° 70° (ENE) 18:59:15 437.250
Cosmos 2499 01 Jul 18:53:07 19:01:18 63° 91° (E) 19:09:59 435.465 / 435.565
NOAA 18 01 Jul 19:03:22 19:08:42 56° 259° (WSW) 19:14:07 137.9125
CUTE-I 01 Jul 19:13:25 19:18:34 49° 260° (W) 19:23:47 437.470
CANX-2 01 Jul 19:16:13 19:18:34 15° 65° (ENE) 19:20:54 2200.000
CUBESAT XI-V 01 Jul 19:17:23 19:21:34 35° 289° (WNW) 19:25:42 437.345
CINEMA 3 01 Jul 19:22:42 19:25:16 16° 66° (ENE) 19:27:51 145.822/145.860
GONETS M04 01 Jul 19:28:52 19:37:23 58° 282° (WNW) 19:45:56
CUSAT 1 01 Jul 19:30:30 19:32:42 18° 272° (W) 19:34:41 437.405
NOAA 15 01 Jul 19:31:04 19:35:17 24° 265° (W) 19:39:31 137.62
BRITE-PL 01 Jul 19:32:37 19:36:21 21° 265° (W) 19:39:54 437.365/2234.400
SEEDS 01 Jul 19:33:04 19:35:12 14° 65° (ENE) 19:37:22 437.485
CUTE 1.7 + AOD 2 01 Jul 19:34:36 19:37:43 20° 68° (ENE) 19:40:52 437.475
AO-85 01 Jul 19:40:32 19:42:52 13° 106° (ESE) 19:45:10 145.980
HO-68 01 Jul 19:40:52 19:47:33 44° 66° (ENE) 19:54:15 435.675
GOMX 1 01 Jul 19:47:26 19:51:25 29° 263° (W) 19:55:13 467.674
SRMSAT 01 Jul 19:51:28 19:51:54 10° 189° (S) 19:52:21 437.500
AAUSAT CUBESAT 2 01 Jul 20:01:23 20:03:53 16° 67° (ENE) 20:06:25 437.432
RS-15 01 Jul 20:15:41 20:27:52 58° 51° (NE) 20:39:52 29.354- 29.394
Cubesat XI-IV 01 Jul 20:24:27 20:25:57 11° 271° (W) 20:27:27 437.490
STRAND 1 01 Jul 20:26:44 20:31:54 73° 103° (ESE) 20:37:01 437.568
DANDE 01 Jul 20:26:57 20:29:30 16° 277° (W) 20:31:43 436.750
DOVE 4 01 Jul 20:30:06 20:33:24 22° 265° (W) 20:36:39 437.250
CUBEBUG 2 01 Jul 20:30:58 20:34:32 28° 70° (ENE) 20:38:11 437.445
COMPASS 1 01 Jul 20:37:19 20:41:23 50° 74° (ENE) 20:45:29 437.405
ZACube-1 01 Jul 20:42:11 20:44:55 17° 66° (ENE) 20:47:42 437.345
PRISM 01 Jul 20:44:11 20:46:14 13° 93° (E) 20:48:16 437.425
Oscar 11 01 Jul 20:44:30 20:47:38 20° 67° (ENE) 20:50:47 145.826/435.025
Cosmos 2499 01 Jul 20:48:05 20:55:02 28° 292° (WNW) 21:02:17 435.465 / 435.565
CANX-2 01 Jul 20:49:51 20:53:58 47° 261° (W) 20:58:09 2200.000
AUBIESAT-1 01 Jul 20:51:38 20:54:30 28° 66° (ENE) 20:57:25 437.475
FUNcube-1 01 Jul 20:57:00 21:00:19 23° 68° (ENE) 21:03:44 145.935
CINEMA 3 01 Jul 20:58:16 21:02:06 37° 262° (W) 21:05:59 145.822/145.860
SEEDS 01 Jul 21:06:21 21:10:27 49° 260° (W) 21:14:37 437.485
CUTE 1.7 + AOD 2 01 Jul 21:09:29 21:13:19 32° 263° (W) 21:17:13 437.475
UWE-3 01 Jul 21:09:58 21:14:03 53° 74° (ENE) 21:18:15 435.000/436.395/437.385
DELFI C3 01 Jul 21:17:09 21:20:00 19° 68° (ENE) 21:22:51 145.870
AO-85 01 Jul 21:17:17 21:22:44 83° 302° (WNW) 21:28:02 145.980
HUMSAT D 01 Jul 21:24:54 21:26:04 11° 63° (ENE) 21:27:13 437.325/437.525
HO-68 01 Jul 21:28:59 21:35:18 34° 263° (W) 21:41:42 435.675
M-CUBED/EXP-1 PRIME 01 Jul 21:33:57 21:37:06 49° 255° (WSW) 21:40:18 437.505
AAUSAT CUBESAT 2 01 Jul 21:35:04 21:39:01 41° 262° (W) 21:43:01 437.432
CUBEBUG 2 01 Jul 22:07:55 22:11:09 22° 266° (W) 22:14:28 437.445
STRAND 1 01 Jul 22:07:58 22:10:24 14° 299° (WNW) 22:12:51 437.568
COMPASS 1 01 Jul 22:15:33 22:17:13 12° 269° (W) 22:18:54 437.405
ZACube-1 01 Jul 22:16:56 22:20:52 38° 262° (W) 22:24:55 437.345
PRISM 01 Jul 22:17:53 22:21:44 42° 288° (WNW) 22:25:33 437.425
Oscar 11 01 Jul 22:19:34 22:23:30 34° 262° (W) 22:27:30 145.826/435.025
AUBIESAT-1 01 Jul 22:27:37 22:29:07 13° 262° (W) 22:30:37 437.475
TIGRISAT 01 Jul 22:32:40 22:35:42 17° 93° (E) 22:38:44 435.000
FUNcube-1 01 Jul 22:32:49 22:36:25 27° 264° (W) 22:40:07 145.935
